EZY8565 EGKK-LTBS

Flight info

Callsign EZY8565
Flight time N/A
Altitude 35000
Route MIMFO1M MIMFO Y312 DVR UL9 KONAN DCT KOK DCT REMBA DCT SPI DCT ULNOK DCT VIBOM DCT NOMBO DCT RIDAR DCT RADIZ DCT GORPA DCT DEVUL DCT LIKVI DCT REMSO DCT MEDUX/N0446F370 UM867 KOGAT DCT DISOR DCT FSK DCT RIKSO UP14 ODNOD/N0430F270 T491 SONUP SONUP1Y
Aircraft A21N/M-SDE2E3FGHIRWXY/LB1

Departure

Time N/A
Airport London Gatwick Airport (EGKK)

Arrival

Time 2026-04-29 15:25
Airport Dalaman International Airport (LTBS)
Time Latitude Longitude Altitude Speed Heading
2026-04-29 14:58 38.13948 27.92404 31200 ft 469 kts 146°
2026-04-29 14:58 38.11289 27.94790 30395 ft 468 kts 146°
2026-04-29 14:59 38.08638 27.97165 29791 ft 462 kts 146°
2026-04-29 14:59 38.06022 27.99506 29133 ft 457 kts 146°
2026-04-29 14:59 38.03440 28.01814 28463 ft 452 kts 146°
2026-04-29 14:59 38.00882 28.04097 27822 ft 447 kts 146°
2026-04-29 15:00 37.98352 28.06352 27159 ft 442 kts 146°
2026-04-29 15:00 37.95877 28.08556 26524 ft 438 kts 146°
2026-04-29 15:00 37.93396 28.10763 25925 ft 433 kts 146°
2026-04-29 15:00 37.90937 28.12949 25317 ft 429 kts 146°
2026-04-29 15:01 37.88506 28.15108 24713 ft 425 kts 146°
2026-04-29 15:01 37.86094 28.17250 24123 ft 422 kts 146°
2026-04-29 15:01 37.83700 28.19373 23533 ft 418 kts 146°
2026-04-29 15:01 37.81330 28.21474 22887 ft 414 kts 146°
2026-04-29 15:02 37.78979 28.23556 22249 ft 410 kts 146°
2026-04-29 15:02 37.76658 28.25611 21622 ft 406 kts 146°
2026-04-29 15:02 37.74353 28.27649 20987 ft 403 kts 146°
2026-04-29 15:02 37.72063 28.29672 20386 ft 400 kts 146°
2026-04-29 15:03 37.69796 28.31674 19810 ft 396 kts 146°
2026-04-29 15:03 37.67546 28.33660 19220 ft 392 kts 146°
2026-04-29 15:03 37.65316 28.35626 18647 ft 390 kts 146°
2026-04-29 15:03 37.63105 28.37574 18051 ft 387 kts 146°
2026-04-29 15:04 37.60909 28.39506 17454 ft 383 kts 146°
2026-04-29 15:04 37.58738 28.41415 17080 ft 376 kts 146°
2026-04-29 15:04 37.56607 28.43288 16982 ft 379 kts 146°
2026-04-29 15:04 37.54422 28.45207 16853 ft 376 kts 146°
2026-04-29 15:05 37.52311 28.47060 16443 ft 375 kts 146°
2026-04-29 15:05 37.50141 28.48858 15944 ft 371 kts 152°
2026-04-29 15:05 37.47822 28.50229 15385 ft 366 kts 161°
2026-04-29 15:05 37.45390 28.51130 14801 ft 362 kts 168°
2026-04-29 15:06 37.42937 28.51866 14289 ft 359 kts 168°
2026-04-29 15:06 37.40534 28.52612 14053 ft 353 kts 167°
2026-04-29 15:06 37.38130 28.53365 13992 ft 360 kts 167°
2026-04-29 15:06 37.35702 28.54126 13986 ft 358 kts 167°
2026-04-29 15:07 37.33287 28.54882 13985 ft 358 kts 167°
2026-04-29 15:07 37.30892 28.55630 13991 ft 358 kts 167°
2026-04-29 15:07 37.28476 28.56383 13986 ft 358 kts 167°
2026-04-29 15:07 37.26046 28.57138 13992 ft 359 kts 167°
2026-04-29 15:08 37.23626 28.57892 13987 ft 357 kts 167°
2026-04-29 15:08 37.21199 28.58647 13990 ft 358 kts 167°
2026-04-29 15:08 37.18790 28.59396 13986 ft 353 kts 168°
2026-04-29 15:08 37.16464 28.60120 13989 ft 335 kts 167°
2026-04-29 15:09 37.14371 28.61208 13972 ft 320 kts 146°
2026-04-29 15:09 37.12836 28.63149 13813 ft 311 kts 122°
2026-04-29 15:09 37.12079 28.65608 13429 ft 307 kts 96°
2026-04-29 15:09 37.12176 28.68241 12990 ft 303 kts 77°
2026-04-29 15:10 37.12604 28.70826 12571 ft 301 kts 76°
2026-04-29 15:10 37.13033 28.73378 12196 ft 298 kts 77°
2026-04-29 15:10 37.13433 28.75915 11818 ft 295 kts 78°
2026-04-29 15:10 37.13807 28.78442 11458 ft 293 kts 79°
2026-04-29 15:11 37.14163 28.80950 11128 ft 290 kts 79°
2026-04-29 15:11 37.14501 28.83381 11011 ft 286 kts 79°
2026-04-29 15:11 37.14841 28.85856 10999 ft 290 kts 79°
2026-04-29 15:11 37.15185 28.88349 11002 ft 290 kts 79°
2026-04-29 15:12 37.15533 28.90874 11001 ft 290 kts 79°
2026-04-29 15:12 37.15841 28.93337 10997 ft 290 kts 87°
2026-04-29 15:12 37.15529 28.95814 10908 ft 288 kts 113°
2026-04-29 15:12 37.14430 28.97876 10576 ft 286 kts 135°
2026-04-29 15:13 37.12939 28.99519 10217 ft 285 kts 142°
2026-04-29 15:13 37.11377 29.01040 9851 ft 283 kts 143°
2026-04-29 15:13 37.09845 29.02572 9425 ft 282 kts 141°
2026-04-29 15:13 37.08343 29.04136 9082 ft 277 kts 144°
2026-04-29 15:14 37.06651 29.05076 9006 ft 259 kts 174°
2026-04-29 15:14 37.04913 29.04898 8769 ft 251 kts 202°
2026-04-29 15:14 37.03468 29.03714 8373 ft 249 kts 225°
2026-04-29 15:14 37.02268 29.02161 8022 ft 247 kts 229°
2026-04-29 15:15 37.01111 29.00585 7694 ft 245 kts 228°
2026-04-29 15:15 36.99947 28.99063 7396 ft 244 kts 226°
2026-04-29 15:15 36.98744 28.97564 7062 ft 244 kts 225°
2026-04-29 15:15 36.97525 28.96093 6765 ft 243 kts 225°
2026-04-29 15:16 36.96308 28.94641 6449 ft 241 kts 225°
2026-04-29 15:16 36.95092 28.93199 6116 ft 240 kts 225°
2026-04-29 15:16 36.93889 28.91760 5867 ft 238 kts 225°
2026-04-29 15:16 36.92726 28.90302 5532 ft 237 kts 226°
2026-04-29 15:17 36.91572 28.88831 5242 ft 236 kts 226°
2026-04-29 15:17 36.90427 28.87370 4957 ft 235 kts 225°
2026-04-29 15:17 36.89045 28.86321 4639 ft 235 kts 194°
2026-04-29 15:17 36.87428 28.86337 4319 ft 236 kts 162°
2026-04-29 15:18 36.86039 28.87374 4020 ft 239 kts 140°
2026-04-29 15:18 36.84625 28.88406 3888 ft 229 kts 168°
2026-04-29 15:18 36.83124 28.88382 3757 ft 213 kts 202°
2026-04-29 15:18 36.81943 28.87404 3625 ft 200 kts 226°
2026-04-29 15:19 36.81030 28.86116 3372 ft 198 kts 243°
2026-04-29 15:19 36.80759 28.84480 3148 ft 195 kts 280°
2026-04-29 15:19 36.81362 28.82990 2833 ft 198 kts 318°
2026-04-29 15:19 36.82611 28.82272 2497 ft 204 kts 356°
2026-04-29 15:20 36.83978 28.82633 2242 ft 205 kts 31°
2026-04-29 15:20 36.85161 28.83647 2262 ft 210 kts 42°
2026-04-29 15:20 36.86202 28.84951 3363 ft 219 kts 51°
2026-04-29 15:20 36.86813 28.86768 3781 ft 247 kts 93°
2026-04-29 15:21 36.86283 28.88939 3487 ft 280 kts 130°
2026-04-29 15:21 36.84706 28.90296 2910 ft 281 kts 168°
2026-04-29 15:21 36.82817 28.90164 2302 ft 271 kts 206°
2026-04-29 15:21 36.81420 28.88762 2053 ft 250 kts 234°
2026-04-29 15:22 36.80466 28.87044 1868 ft 234 kts 240°
2026-04-29 15:22 36.79747 28.85281 1367 ft 220 kts 247°
2026-04-29 15:22 36.79145 28.83617 1065 ft 197 kts 237°
2026-04-29 15:22 36.78183 28.82577 795 ft 173 kts 208°
2026-04-29 15:23 36.77199 28.81982 784 ft 142 kts 206°
2026-04-29 15:23 36.76347 28.81427 659 ft 146 kts 210°
2026-04-29 15:23 36.75470 28.80828 455 ft 139 kts 206°
2026-04-29 15:23 36.74592 28.80380 305 ft 134 kts 198°
2026-04-29 15:24 36.73705 28.80062 214 ft 134 kts 195°
2026-04-29 15:24 36.72810 28.79757 107 ft 134 kts 195°
2026-04-29 15:24 36.71962 28.79468 25 ft 105 kts 194°
2026-04-29 15:24 36.71469 28.79296 26 ft 61 kts 194°
2026-04-29 15:25 36.71076 28.79161 25 ft 56 kts 195°
2026-04-29 15:25 36.70739 28.79028 26 ft 46 kts 207°
2026-04-29 15:25 36.70570 28.78824 22 ft 19 kts 276°
2026-04-29 15:25 36.70598 28.78791 22 ft 3 kts 356°
2026-04-29 15:26 36.70635 28.78802 22 ft 8 kts 14°
2026-04-29 15:26 36.70700 28.78824 25 ft 12 kts 15°
2026-04-29 15:26 36.70790 28.78856 27 ft 15 kts 16°
2026-04-29 15:26 36.70906 28.78898 25 ft 20 kts 15°
2026-04-29 15:27 36.71083 28.78956 23 ft 33 kts 15°
2026-04-29 15:27 36.71311 28.79030 24 ft 34 kts 16°
2026-04-29 15:27 36.71578 28.79124 26 ft 45 kts 15°
2026-04-29 15:27 36.71825 28.79208 30 ft 25 kts 12°
2026-04-29 15:28 36.71876 28.79119 28 ft 16 kts 281°
2026-04-29 15:28 36.71912 28.79029 30 ft 19 kts 323°
2026-04-29 15:28 36.72099 28.79094 26 ft 25 kts 28°
2026-04-29 15:28 36.72245 28.79158 27 ft 15 kts 334°
2026-04-29 15:29 36.72320 28.79096 27 ft 4 kts 329°